sat.trackr.live / text

‹ back to catalog

STARLINK-1020

NORAD 44725 · 2019-074N

PAYLOAD ACTIVE UNKNOWN

§ Identity

Operator
Country
US
Launch date
2019-11-11
Launch site
AFETR
Launch vehicle
Mass (kg)
RCS (m²)

Purposes: comms

External: N2YO · Heavens-Above · Gunter

§ Orbital elements

Epoch: 2026-09-14T17:04:03.434304Z

Period
91.77 min
Inclination
53.1525°
Eccentricity
0.0001655
Mean motion
15.69100737 rev/d
Perigee alt
360.4 km
Apogee alt
362.6 km
Semi-major
6,739.6 km
B*
4.5418e-4
RAAN
15.9691°
Arg perigee
0.4246°
Mean anomaly
359.6773°
Rev number
37,785

§ Raw data

STARLINK-10201 44725U 19074N   26257.71115086  .00053418  00000+0  45418-3 0  99992 44725  53.1525  15.9691 0001655   0.4246 359.6773 15.69100737377858

JSON: /api/v1/satellites/44725 · /tle

For live sub-satellite position, see the globe view (requires WebGL).

§ Visibility from observer

Set your observer location to see the next 7 days of passes ≥ 10°. The values pass through the URL so the page stays shareable.

No JS? Fill the form by hand. The geolocation button needs JavaScript.